TimeHST,TemperatureF,Dew PointF,Humidity,Sea Level PressureIn,VisibilityMPH,Wind Direction,Wind SpeedMPH,Gust SpeedMPH,PrecipitationIn,Events,Conditions,WindDirDegrees,DateUTC
12:35 AM,68.0,64.9,90,30.13,3.0,North,3.5,-,0.08,Rain,Heavy Rain,10,2013-05-27 10:35:00
12:53 AM,66.9,64.9,93,30.12,4.0,WNW,5.8,-,0.12,Rain,Rain,290,2013-05-27 10:53:00
1:20 AM,66.9,64.9,93,30.11,9.0,WSW,5.8,-,0.02,Rain,Light Rain,250,2013-05-27 11:20:00
1:34 AM,66.9,64.9,93,30.11,4.0,WSW,4.6,-,0.04,Rain,Rain,250,2013-05-27 11:34:00
1:53 AM,66.9,66.0,97,30.10,6.0,WSW,4.6,-,0.05,Rain,Rain,250,2013-05-27 11:53:00
2:24 AM,68.0,66.0,93,30.09,10.0,Calm,Calm,-,0.04,Rain,Light Rain,0,2013-05-27 12:24:00
2:31 AM,68.0,66.0,93,30.09,10.0,Calm,Calm,-,0.04,Rain,Light Rain,0,2013-05-27 12:31:00
2:53 AM,68.0,66.0,93,30.08,10.0,SW,5.8,-,0.04,Rain,Light Rain,230,2013-05-27 12:53:00
3:53 AM,68.0,66.0,93,30.07,10.0,West,9.2,-,0.01,Rain,Light Rain,270,2013-05-27 13:53:00
4:53 AM,68.0,64.9,90,30.07,10.0,West,5.8,-,0.00,Rain,Light Rain,280,2013-05-27 14:53:00
5:53 AM,69.1,66.0,90,30.08,10.0,West,8.1,-,0.00,Rain,Light Rain,280,2013-05-27 15:53:00
6:53 AM,69.1,66.0,90,30.10,10.0,SW,4.6,-,0.01,Rain,Light Rain,220,2013-05-27 16:53:00
7:07 AM,69.1,66.0,90,30.11,2.5,WSW,4.6,-,0.00,Rain,Heavy Rain,250,2013-05-27 17:07:00
7:21 AM,69.1,66.0,90,30.11,10.0,WSW,4.6,-,0.04,Rain,Light Rain,250,2013-05-27 17:21:00
7:33 AM,69.1,66.0,90,30.12,10.0,South,3.5,-,0.05,Rain,Light Rain,180,2013-05-27 17:33:00
7:45 AM,69.1,66.0,90,30.12,2.0,Calm,Calm,-,0.05,Rain,Light Rain,0,2013-05-27 17:45:00
7:53 AM,69.1,66.0,90,30.12,2.0,West,4.6,-,0.05,Rain,Light Rain,270,2013-05-27 17:53:00
8:15 AM,70.0,68.0,93,30.12,2.5,WNW,9.2,-,0.02,Rain,Light Rain,290,2013-05-27 18:15:00
8:31 AM,70.0,66.9,90,30.12,10.0,West,8.1,-,0.03,Rain,Light Rain,270,2013-05-27 18:31:00
8:53 AM,71.1,66.9,87,30.12,10.0,WSW,8.1,-,0.03,Rain,Light Rain,240,2013-05-27 18:53:00
9:53 AM,75.0,66.9,76,30.12,10.0,WSW,6.9,-,0.00,Rain,Light Rain,250,2013-05-27 19:53:00
10:53 AM,78.1,64.9,64,30.11,10.0,Variable,5.8,-,0.00,,Overcast,0,2013-05-27 20:53:00
11:16 AM,78.1,66.0,66,30.11,10.0,SE,4.6,-,N/A,,Overcast,130,2013-05-27 21:16:00
11:24 AM,80.1,66.9,64,30.11,10.0,Variable,4.6,-,N/A,,Overcast,0,2013-05-27 21:24:00
11:53 AM,80.1,66.9,64,30.10,10.0,East,11.5,18.4,N/A,,Mostly Cloudy,90,2013-05-27 21:53:00
12:53 PM,79.0,66.0,64,30.09,10.0,East,11.5,-,N/A,,Mostly Cloudy,100,2013-05-27 22:53:00
1:53 PM,77.0,68.0,74,30.08,10.0,SE,6.9,-,N/A,,Mostly Cloudy,130,2013-05-27 23:53:00
2:53 PM,75.9,66.9,74,30.07,10.0,Variable,3.5,-,0.00,,Overcast,0,2013-05-28 00:53:00
3:35 PM,75.9,66.9,74,30.07,10.0,North,5.8,-,N/A,,Overcast,10,2013-05-28 01:35:00
3:53 PM,75.9,66.9,74,30.06,10.0,ENE,6.9,-,N/A,,Overcast,60,2013-05-28 01:53:00
4:10 PM,75.9,64.9,69,30.07,10.0,East,9.2,-,0.00,Rain,Light Rain,90,2013-05-28 02:10:00
4:19 PM,73.9,64.9,73,30.07,10.0,SSW,11.5,-,0.00,Rain,Light Rain,200,2013-05-28 02:19:00
4:53 PM,72.0,66.9,84,30.06,9.0,WSW,9.2,-,0.00,Rain,Light Rain,240,2013-05-28 02:53:00
5:04 PM,71.1,66.9,87,30.06,9.0,West,8.1,-,0.01,Rain,Light Rain,270,2013-05-28 03:04:00
5:42 PM,71.1,66.9,87,30.08,2.0,SSW,8.1,-,0.01,Rain,Heavy Rain,200,2013-05-28 03:42:00
5:49 PM,71.6,66.2,83,30.07,1.2,Variable,4.6,-,0.12,Rain,Heavy Rain,0,2013-05-28 03:49:00
5:53 PM,71.1,66.9,87,30.07,3.0,WSW,5.8,-,0.14,Rain,Light Rain,240,2013-05-28 03:53:00
6:53 PM,70.0,66.9,90,30.09,10.0,WSW,6.9,-,0.00,Rain,Light Rain,240,2013-05-28 04:53:00
7:40 PM,71.1,66.9,87,30.11,7.0,East,12.7,17.3,0.00,Rain,Light Rain,100,2013-05-28 05:40:00
7:53 PM,70.0,66.9,90,30.12,3.0,SE,8.1,-,0.09,Rain,Heavy Rain,140,2013-05-28 05:53:00
8:14 PM,69.1,66.9,93,30.13,2.5,WSW,5.8,-,0.16,Rain,Heavy Rain,240,2013-05-28 06:14:00
8:19 PM,69.1,66.9,93,30.13,5.0,WSW,6.9,-,0.17,Rain,Light Rain,250,2013-05-28 06:19:00
8:53 PM,69.1,66.9,93,30.14,5.0,South,6.9,-,0.19,Rain,Rain,180,2013-05-28 06:53:00
9:53 PM,69.1,64.9,87,30.14,10.0,SW,8.1,-,0.08,Rain,Light Rain,220,2013-05-28 07:53:00
10:53 PM,68.0,66.0,93,30.15,4.0,ESE,5.8,-,0.10,Rain,Heavy Rain,120,2013-05-28 08:53:00
11:53 PM,68.0,66.0,93,30.12,10.0,WSW,8.1,-,0.21,Rain,Light Rain,240,2013-05-28 09:53:00